Time,TemperatureF,DewpointF,PressureIn,WindDirection,WindDirectionDegrees,WindSpeedMPH,WindSpeedGustMPH,Humidity,HourlyPrecipIn,Conditions,Clouds,dailyrainin,SoftwareType,DateUTC
2013-06-10 00:03:00,74.0,-99.9,30.10,SE,130,7.0,9.0,-999,-99.99,,,-99.99,,2013-06-10 04:03:00,
2013-06-10 00:13:00,74.0,-99.9,30.10,SE,140,7.0,9.0,-999,-99.99,,,-99.99,,2013-06-10 04:13:00,
2013-06-10 00:23:00,74.0,-99.9,30.09,SE,140,9.0,9.0,-999,-99.99,,,-99.99,,2013-06-10 04:23:00,
2013-06-10 00:33:00,74.0,-99.9,30.09,SE,140,9.0,9.0,-999,-99.99,,,-99.99,,2013-06-10 04:33:00,
2013-06-10 00:42:00,73.0,-99.9,30.09,SE,140,9.0,9.0,-999,-99.99,,,-99.99,,2013-06-10 04:42:00,
2013-06-10 00:53:00,73.0,-99.9,30.09,SE,140,7.0,9.0,-999,-99.99,,,-99.99,,2013-06-10 04:53:00,
2013-06-10 01:02:00,73.0,-99.9,30.09,SE,140,7.0,9.0,-999,-99.99,,,-99.99,,2013-06-10 05:02:00,
2013-06-10 01:12:00,73.0,-99.9,30.09,SE,130,9.0,9.0,-999,-99.99,,,-99.99,,2013-06-10 05:12:00,
2013-06-10 01:22:00,73.0,-99.9,30.09,SE,130,7.0,9.0,-999,-99.99,,,-99.99,,2013-06-10 05:22:00,
2013-06-10 01:32:00,73.0,-99.9,30.09,SE,140,9.0,11.0,-999,-99.99,,,-99.99,,2013-06-10 05:32:00,
2013-06-10 01:42:00,73.0,-99.9,30.09,SE,140,9.0,11.0,-999,-99.99,,,-99.99,,2013-06-10 05:42:00,
2013-06-10 01:52:00,72.0,-99.9,30.08,SE,140,9.0,11.0,-999,-99.99,,,-99.99,,2013-06-10 05:52:00,
2013-06-10 02:02:00,72.0,-99.9,30.07,SE,140,9.0,11.0,-999,-99.99,,,-99.99,,2013-06-10 06:02:00,
2013-06-10 02:12:00,72.0,-99.9,30.07,SE,140,9.0,11.0,-999,-99.99,,,-99.99,,2013-06-10 06:12:00,
2013-06-10 02:22:00,72.0,-99.9,30.07,SE,140,9.0,11.0,-999,-99.99,,,-99.99,,2013-06-10 06:22:00,
2013-06-10 02:32:00,72.0,-99.9,30.06,SE,140,11.0,11.0,-999,-99.99,,,-99.99,,2013-06-10 06:32:00,
2013-06-10 02:42:00,72.0,-99.9,30.06,SE,140,11.0,13.0,-999,-99.99,,,-99.99,,2013-06-10 06:42:00,
2013-06-10 02:53:00,72.0,-99.9,30.06,SSE,150,11.0,13.0,-999,-99.99,,,-99.99,,2013-06-10 06:53:00,
2013-06-10 03:03:00,72.0,-99.9,30.06,South,170,11.0,13.0,-999,-99.99,,,-99.99,,2013-06-10 07:03:00,
2013-06-10 03:12:00,72.0,-99.9,30.05,SSE,160,11.0,13.0,-999,-99.99,,,-99.99,,2013-06-10 07:12:00,
2013-06-10 03:22:00,72.0,-99.9,30.05,SSE,160,13.0,16.0,-999,-99.99,,,-99.99,,2013-06-10 07:22:00,
2013-06-10 03:32:00,72.0,-99.9,30.05,SSE,160,11.0,13.0,-999,-99.99,,,-99.99,,2013-06-10 07:32:00,
2013-06-10 03:42:00,72.0,-99.9,30.06,SSE,160,11.0,13.0,-999,-99.99,,,-99.99,,2013-06-10 07:42:00,
2013-06-10 03:52:00,72.0,-99.9,30.05,SSE,160,11.0,13.0,-999,-99.99,,,-99.99,,2013-06-10 07:52:00,
2013-06-10 04:02:00,72.0,-99.9,30.05,SSE,160,9.0,11.0,-999,-99.99,,,-99.99,,2013-06-10 08:02:00,
2013-06-10 04:12:00,72.0,-99.9,30.04,SSE,150,7.0,9.0,-999,-99.99,,,-99.99,,2013-06-10 08:12:00,
2013-06-10 04:22:00,72.0,-99.9,30.04,SE,130,9.0,9.0,-999,-99.99,,,-99.99,,2013-06-10 08:22:00,
2013-06-10 04:32:00,72.0,-99.9,30.03,ESE,120,11.0,27.0,-999,-99.99,,,-99.99,,2013-06-10 08:32:00,
2013-06-10 04:42:00,72.0,-99.9,30.03,SE,130,7.0,13.0,-999,-99.99,,,-99.99,,2013-06-10 08:42:00,
2013-06-10 04:52:00,72.0,-99.9,30.05,West,260,7.0,13.0,-999,-99.99,,,-99.99,,2013-06-10 08:52:00,
2013-06-10 05:02:00,72.0,-99.9,30.06,SW,220,13.0,31.0,-999,-99.99,,,-99.99,,2013-06-10 09:02:00,
2013-06-10 05:12:00,71.0,-99.9,30.05,SW,220,13.0,22.0,-999,-99.99,,,-99.99,,2013-06-10 09:12:00,
2013-06-10 05:22:00,71.0,-99.9,30.04,SSE,160,7.0,11.0,-999,-99.99,,,-99.99,,2013-06-10 09:22:00,
2013-06-10 05:32:00,71.0,-99.9,30.04,SE,130,4.0,9.0,-999,-99.99,,,-99.99,,2013-06-10 09:32:00,
2013-06-10 05:43:00,71.0,-99.9,30.04,ESE,120,7.0,7.0,-999,-99.99,,,-99.99,,2013-06-10 09:43:00,
2013-06-10 05:54:00,71.0,-99.9,30.03,East,90,4.0,7.0,-999,-99.99,,,-99.99,,2013-06-10 09:54:00,
2013-06-10 06:03:00,71.0,-99.9,30.03,ESE,110,9.0,9.0,-999,-99.99,,,-99.99,,2013-06-10 10:03:00,
2013-06-10 06:13:00,72.0,-99.9,30.04,SSE,160,11.0,16.0,-999,-99.99,,,-99.99,,2013-06-10 10:13:00,
2013-06-10 06:23:00,72.0,-99.9,30.04,SSE,160,11.0,16.0,-999,-99.99,,,-99.99,,2013-06-10 10:23:00,
2013-06-10 06:33:00,72.0,-99.9,30.04,SSE,160,11.0,16.0,-999,-99.99,,,-99.99,,2013-06-10 10:33:00,
2013-06-10 06:42:00,72.0,-99.9,30.03,SE,140,4.0,7.0,-999,-99.99,,,-99.99,,2013-06-10 10:42:00,
2013-06-10 06:52:00,73.0,-99.9,30.03,South,170,2.0,4.0,-999,-99.99,,,-99.99,,2013-06-10 10:52:00,
2013-06-10 07:03:00,73.0,-99.9,30.03,South,170,4.0,7.0,-999,-99.99,,,-99.99,,2013-06-10 11:03:00,
2013-06-10 07:12:00,72.0,-99.9,30.03,SSE,160,7.0,9.0,-999,-99.99,,,-99.99,,2013-06-10 11:12:00,
2013-06-10 07:22:00,72.0,-99.9,30.03,SSE,150,9.0,11.0,-999,-99.99,,,-99.99,,2013-06-10 11:22:00,
2013-06-10 07:32:00,72.0,-99.9,30.03,SSE,150,9.0,11.0,-999,-99.99,,,-99.99,,2013-06-10 11:32:00,
2013-06-10 07:42:00,72.0,-99.9,30.03,SSE,150,11.0,11.0,-999,-99.99,,,-99.99,,2013-06-10 11:42:00,
2013-06-10 07:52:00,72.0,-99.9,30.03,SSE,160,11.0,11.0,-999,-99.99,,,-99.99,,2013-06-10 11:52:00,
2013-06-10 08:02:00,72.0,-99.9,30.03,SSE,160,11.0,11.0,-999,-99.99,,,-99.99,,2013-06-10 12:02:00,
2013-06-10 08:12:00,72.0,-99.9,30.03,SSE,160,11.0,13.0,-999,-99.99,,,-99.99,,2013-06-10 12:12:00,
2013-06-10 08:22:00,73.0,-99.9,30.03,South,170,11.0,16.0,-999,-99.99,,,-99.99,,2013-06-10 12:22:00,
2013-06-10 08:33:00,73.0,-99.9,30.03,South,190,13.0,16.0,-999,-99.99,,,-99.99,,2013-06-10 12:33:00,
2013-06-10 08:42:00,72.0,-99.9,30.03,South,190,11.0,13.0,-999,-99.99,,,-99.99,,2013-06-10 12:42:00,
2013-06-10 08:52:00,72.0,-99.9,30.03,South,190,9.0,11.0,-999,-99.99,,,-99.99,,2013-06-10 12:52:00,
2013-06-10 09:02:00,72.0,-99.9,30.03,South,190,9.0,11.0,-999,-99.99,,,-99.99,,2013-06-10 13:02:00,
2013-06-10 09:12:00,73.0,-99.9,30.02,South,190,9.0,11.0,-999,-99.99,,,-99.99,,2013-06-10 13:12:00,
2013-06-10 09:22:00,73.0,-99.9,30.02,South,190,9.0,11.0,-999,-99.99,,,-99.99,,2013-06-10 13:22:00,
2013-06-10 09:32:00,73.0,-99.9,30.02,South,190,9.0,11.0,-999,-99.99,,,-99.99,,2013-06-10 13:32:00,
2013-06-10 09:43:00,73.0,-99.9,30.02,South,190,9.0,11.0,-999,-99.99,,,-99.99,,2013-06-10 13:43:00,
2013-06-10 09:52:00,73.0,-99.9,30.01,South,190,9.0,11.0,-999,-99.99,,,-99.99,,2013-06-10 13:52:00,
2013-06-10 10:02:00,73.0,-99.9,30.01,SSW,200,9.0,9.0,-999,-99.99,,,-99.99,,2013-06-10 14:02:00,
2013-06-10 10:12:00,74.0,-99.9,30.01,South,190,9.0,11.0,-999,-99.99,,,-99.99,,2013-06-10 14:12:00,
2013-06-10 10:22:00,74.0,-99.9,30.01,South,190,9.0,9.0,-999,-99.99,,,-99.99,,2013-06-10 14:22:00,
2013-06-10 10:32:00,74.0,-99.9,30.00,South,190,9.0,11.0,-999,-99.99,,,-99.99,,2013-06-10 14:32:00,
2013-06-10 10:42:00,74.0,-99.9,30.00,South,180,9.0,11.0,-999,-99.99,,,-99.99,,2013-06-10 14:42:00,
2013-06-10 10:52:00,74.0,-99.9,29.99,South,180,9.0,11.0,-999,-99.99,,,-99.99,,2013-06-10 14:52:00,
2013-06-10 11:03:00,74.0,-99.9,29.99,South,190,7.0,9.0,-999,-99.99,,,-99.99,,2013-06-10 15:03:00,
2013-06-10 11:13:00,74.0,-99.9,29.99,South,190,9.0,9.0,-999,-99.99,,,-99.99,,2013-06-10 15:13:00,
2013-06-10 11:22:00,74.0,-99.9,29.99,SSW,200,9.0,11.0,-999,-99.99,,,-99.99,,2013-06-10 15:22:00,
2013-06-10 11:33:00,74.0,-99.9,29.99,South,190,9.0,11.0,-999,-99.99,,,-99.99,,2013-06-10 15:33:00,
2013-06-10 11:43:00,75.0,-99.9,29.99,South,180,11.0,13.0,-999,-99.99,,,-99.99,,2013-06-10 15:43:00,
2013-06-10 11:53:00,75.0,-99.9,29.99,South,180,11.0,16.0,-999,-99.99,,,-99.99,,2013-06-10 15:53:00,
2013-06-10 12:03:00,75.0,-99.9,29.98,South,180,13.0,16.0,-999,-99.99,,,-99.99,,2013-06-10 16:03:00,
2013-06-10 12:13:00,75.0,-99.9,29.98,South,180,13.0,16.0,-999,-99.99,,,-99.99,,2013-06-10 16:13:00,
2013-06-10 12:23:00,75.0,-99.9,29.98,South,180,11.0,13.0,-999,-99.99,,,-99.99,,2013-06-10 16:23:00,
2013-06-10 12:33:00,75.0,-99.9,29.97,South,190,11.0,13.0,-999,-99.99,,,-99.99,,2013-06-10 16:33:00,
2013-06-10 12:43:00,75.0,-99.9,29.97,South,190,13.0,18.0,-999,-99.99,,,-99.99,,2013-06-10 16:43:00,
2013-06-10 12:53:00,75.0,-99.9,29.96,South,190,13.0,18.0,-999,-99.99,,,-99.99,,2013-06-10 16:53:00,
2013-06-10 13:03:00,75.0,-99.9,29.96,South,180,11.0,13.0,-999,-99.99,,,-99.99,,2013-06-10 17:03:00,
2013-06-10 13:14:00,75.0,-99.9,29.96,South,190,11.0,13.0,-999,-99.99,,,-99.99,,2013-06-10 17:14:00,
2013-06-10 13:27:00,76.0,-99.9,29.95,South,190,11.0,13.0,-999,-99.99,,,-99.99,,2013-06-10 17:27:00,
2013-06-10 13:38:00,76.0,-99.9,29.94,South,180,11.0,16.0,-999,-99.99,,,-99.99,,2013-06-10 17:38:00,
2013-06-10 13:48:00,76.0,-99.9,29.93,South,180,13.0,16.0,-999,-99.99,,,-99.99,,2013-06-10 17:48:00,
2013-06-10 13:58:00,75.0,-99.9,29.93,South,180,11.0,16.0,-999,-99.99,,,-99.99,,2013-06-10 17:58:00,
2013-06-10 14:08:00,75.0,-99.9,29.92,South,170,11.0,18.0,-999,-99.99,,,-99.99,,2013-06-10 18:08:00,
2013-06-10 14:14:00,76.0,-99.9,29.92,South,180,18.0,20.0,-999,-99.99,,,-99.99,,2013-06-10 18:14:00,
2013-06-10 14:25:00,76.0,-99.9,29.91,South,180,16.0,18.0,-999,-99.99,,,-99.99,,2013-06-10 18:25:00,
2013-06-10 14:35:00,76.0,-99.9,29.90,South,180,16.0,18.0,-999,-99.99,,,-99.99,,2013-06-10 18:35:00,
2013-06-10 14:48:00,77.0,-99.9,29.90,South,180,16.0,18.0,-999,-99.99,,,-99.99,,2013-06-10 18:48:00,
2013-06-10 14:55:00,77.0,-99.9,29.90,South,180,16.0,18.0,-999,-99.99,,,-99.99,,2013-06-10 18:55:00,
2013-06-10 15:03:00,76.0,-99.9,29.90,South,180,16.0,20.0,-999,-99.99,,,-99.99,,2013-06-10 19:03:00,
2013-06-10 15:13:00,76.0,-99.9,29.90,South,180,16.0,20.0,-999,-99.99,,,-99.99,,2013-06-10 19:13:00,
2013-06-10 15:23:00,76.0,-99.9,29.89,South,190,16.0,20.0,-999,-99.99,,,-99.99,,2013-06-10 19:23:00,
2013-06-10 15:33:00,76.0,-99.9,29.88,South,190,16.0,22.0,-999,-99.99,,,-99.99,,2013-06-10 19:33:00,
2013-06-10 15:43:00,75.0,-99.9,29.88,South,190,16.0,20.0,-999,-99.99,,,-99.99,,2013-06-10 19:43:00,
2013-06-10 15:53:00,75.0,-99.9,29.88,South,180,16.0,20.0,-999,-99.99,,,-99.99,,2013-06-10 19:53:00,
2013-06-10 16:03:00,75.0,-99.9,29.87,South,190,16.0,18.0,-999,-99.99,,,-99.99,,2013-06-10 20:03:00,
2013-06-10 16:13:00,75.0,-99.9,29.88,South,190,16.0,20.0,-999,-99.99,,,-99.99,,2013-06-10 20:13:00,
2013-06-10 16:23:00,75.0,-99.9,29.87,South,180,20.0,25.0,-999,-99.99,,,-99.99,,2013-06-10 20:23:00,
2013-06-10 16:32:00,76.0,-99.9,29.86,South,180,20.0,25.0,-999,-99.99,,,-99.99,,2013-06-10 20:32:00,
2013-06-10 16:43:00,75.0,-99.9,29.85,South,180,20.0,27.0,-999,-99.99,,,-99.99,,2013-06-10 20:43:00,
2013-06-10 16:53:00,75.0,-99.9,29.84,South,180,22.0,27.0,-999,-99.99,,,-99.99,,2013-06-10 20:53:00,
2013-06-10 17:02:00,76.0,-99.9,29.84,South,180,22.0,27.0,-999,-99.99,,,-99.99,,2013-06-10 21:02:00,
2013-06-10 17:13:00,75.0,-99.9,29.83,South,180,22.0,27.0,-999,-99.99,,,-99.99,,2013-06-10 21:13:00,
2013-06-10 17:23:00,75.0,-99.9,29.82,South,180,22.0,27.0,-999,-99.99,,,-99.99,,2013-06-10 21:23:00,
2013-06-10 17:34:00,75.0,-99.9,29.82,South,180,22.0,27.0,-999,-99.99,,,-99.99,,2013-06-10 21:34:00,
2013-06-10 17:43:00,76.0,-99.9,29.82,South,180,22.0,27.0,-999,-99.99,,,-99.99,,2013-06-10 21:43:00,
2013-06-10 17:53:00,75.0,-99.9,29.81,South,180,20.0,25.0,-999,-99.99,,,-99.99,,2013-06-10 21:53:00,
2013-06-10 18:03:00,75.0,-99.9,29.81,South,180,20.0,22.0,-999,-99.99,,,-99.99,,2013-06-10 22:03:00,
2013-06-10 18:13:00,75.0,-99.9,29.81,South,180,18.0,22.0,-999,-99.99,,,-99.99,,2013-06-10 22:13:00,
2013-06-10 18:23:00,75.0,-99.9,29.80,South,180,20.0,25.0,-999,-99.99,,,-99.99,,2013-06-10 22:23:00,
2013-06-10 18:33:00,76.0,-99.9,29.80,South,180,22.0,29.0,-999,-99.99,,,-99.99,,2013-06-10 22:33:00,
2013-06-10 18:42:00,76.0,-99.9,29.80,South,190,25.0,29.0,-999,-99.99,,,-99.99,,2013-06-10 22:42:00,
2013-06-10 18:52:00,76.0,-99.9,29.80,South,190,25.0,29.0,-999,-99.99,,,-99.99,,2013-06-10 22:52:00,
2013-06-10 19:03:00,76.0,-99.9,29.80,South,190,25.0,29.0,-999,-99.99,,,-99.99,,2013-06-10 23:03:00,
2013-06-10 19:12:00,76.0,-99.9,29.81,South,190,22.0,29.0,-999,-99.99,,,-99.99,,2013-06-10 23:12:00,
2013-06-10 19:22:00,75.0,-99.9,29.80,South,190,22.0,27.0,-999,-99.99,,,-99.99,,2013-06-10 23:22:00,
2013-06-10 19:32:00,75.0,-99.9,29.80,South,190,20.0,27.0,-999,-99.99,,,-99.99,,2013-06-10 23:32:00,
2013-06-10 19:42:00,75.0,-99.9,29.80,South,190,22.0,25.0,-999,-99.99,,,-99.99,,2013-06-10 23:42:00,
2013-06-10 19:52:00,75.0,-99.9,29.80,South,190,22.0,27.0,-999,-99.99,,,-99.99,,2013-06-10 23:52:00,
2013-06-10 20:02:00,75.0,-99.9,29.80,South,180,22.0,27.0,-999,-99.99,,,-99.99,,2013-06-11 00:02:00,
2013-06-10 20:13:00,75.0,-99.9,29.79,South,180,22.0,27.0,-999,-99.99,,,-99.99,,2013-06-11 00:13:00,
2013-06-10 20:22:00,75.0,-99.9,29.79,South,180,22.0,25.0,-999,-99.99,,,-99.99,,2013-06-11 00:22:00,
2013-06-10 20:32:00,75.0,-99.9,29.79,South,180,22.0,27.0,-999,-99.99,,,-99.99,,2013-06-11 00:32:00,
2013-06-10 20:43:00,75.0,-99.9,29.79,South,180,22.0,27.0,-999,-99.99,,,-99.99,,2013-06-11 00:43:00,
2013-06-10 20:52:00,75.0,-99.9,29.79,South,190,22.0,27.0,-999,-99.99,,,-99.99,,2013-06-11 00:52:00,
2013-06-10 21:02:00,75.0,-99.9,29.79,South,180,22.0,27.0,-999,-99.99,,,-99.99,,2013-06-11 01:02:00,
2013-06-10 21:12:00,75.0,-99.9,29.79,South,180,22.0,27.0,-999,-99.99,,,-99.99,,2013-06-11 01:12:00,
2013-06-10 21:22:00,74.0,-99.9,29.80,South,180,25.0,31.0,-999,-99.99,,,-99.99,,2013-06-11 01:22:00,
2013-06-10 21:33:00,74.0,-99.9,29.79,South,180,25.0,31.0,-999,-99.99,,,-99.99,,2013-06-11 01:33:00,
2013-06-10 21:42:00,74.0,-99.9,29.80,South,180,27.0,34.0,-999,-99.99,,,-99.99,,2013-06-11 01:42:00,
2013-06-10 21:53:00,73.0,-99.9,29.79,South,180,27.0,36.0,-999,-99.99,,,-99.99,,2013-06-11 01:53:00,
2013-06-10 22:03:00,73.0,-99.9,29.80,SW,220,27.0,38.0,-999,-99.99,,,-99.99,,2013-06-11 02:03:00,
2013-06-10 22:12:00,73.0,-99.9,29.81,SW,230,20.0,29.0,-999,-99.99,,,-99.99,,2013-06-11 02:12:00,
2013-06-10 22:22:00,73.0,-99.9,29.82,SW,230,18.0,29.0,-999,-99.99,,,-99.99,,2013-06-11 02:22:00,
2013-06-10 22:32:00,72.0,-99.9,29.82,SW,230,16.0,22.0,-999,-99.99,,,-99.99,,2013-06-11 02:32:00,
2013-06-10 22:43:00,72.0,-99.9,29.82,WSW,240,13.0,20.0,-999,-99.99,,,-99.99,,2013-06-11 02:43:00,
2013-06-10 22:52:00,72.0,-99.9,29.81,SW,230,13.0,16.0,-999,-99.99,,,-99.99,,2013-06-11 02:52:00,
2013-06-10 23:03:00,72.0,-99.9,29.81,SW,230,11.0,16.0,-999,-99.99,,,-99.99,,2013-06-11 03:03:00,
2013-06-10 23:13:00,72.0,-99.9,29.81,SW,230,9.0,11.0,-999,-99.99,,,-99.99,,2013-06-11 03:13:00,
2013-06-10 23:22:00,72.0,-99.9,29.82,WSW,240,7.0,9.0,-999,-99.99,,,-99.99,,2013-06-11 03:22:00,
2013-06-10 23:33:00,72.0,-99.9,29.82,WSW,250,9.0,11.0,-999,-99.99,,,-99.99,,2013-06-11 03:33:00,
2013-06-10 23:43:00,72.0,-99.9,29.81,WSW,240,9.0,11.0,-999,-99.99,,,-99.99,,2013-06-11 03:43:00,
2013-06-10 23:53:00,72.0,-99.9,29.81,WSW,250,9.0,11.0,-999,-99.99,,,-99.99,,2013-06-11 03:53:00,